Overview Statistics Trail Chart Weather Telemetry Raw packets
 

This is the latest recevied weather packets stored in our database for station/object W5ITZ. If no packets are shown the sender has not sent any weather packets the latest 10 day(s).

<< 37 38 39 40 41 42 43 >>
Time Temp. Humidity Pressure Rain* Wind** Luminosity Snow
1787972498 26.11° C 81% 1016.2 hPa 0 mm - 0 W/m² -
1787972197 26.67° C 81% 1016.1 hPa 0 mm - 0 W/m² -
1787971892 26.67° C 80% 1015.9 hPa 0 mm - 0 W/m² -
1787971588 26.67° C 81% 1015.8 hPa 0 mm - 0 W/m² -
1787971284 26.67° C 81% 1015.8 hPa 0 mm - 0 W/m² -
1787970979 27.22° C 82% 1016.2 hPa 0 mm - 0 W/m² -
1787970673 27.22° C 84% 1015.9 hPa 0 mm - 0 W/m² -
1787970373 27.22° C 84% 1015.6 hPa 0 mm - 0 W/m² -
1787970071 27.22° C 83% 1015.5 hPa 0 mm - 0 W/m² -
1787969770 27.22° C 82% 1015.6 hPa 0 mm - 0 W/m² -
1787969469 27.22° C 81% 1015.3 hPa 0 mm - 0 W/m² -
1787969164 27.22° C 78% 1015.3 hPa 0 mm - 0 W/m² -
1787968859 27.22° C 77% 1015.3 hPa 0 mm - 0 W/m² -
1787968558 27.22° C 75% 1014.9 hPa 0 mm - 0 W/m² -
1787968254 27.22° C 75% 1015 hPa 0 mm - 0 W/m² -
1787967949 27.22° C 75% 1014.7 hPa 0 mm - 0 W/m² -
1787967645 27.78° C 74% 1014.8 hPa 0 mm - 0 W/m² -
1787967345 27.78° C 72% 1015 hPa 0 mm - 0 W/m² -
1787967041 27.78° C 72% 1015.2 hPa 0 mm - 0 W/m² -
1787966738 28.33° C 71% 1015.1 hPa 0 mm - 0 W/m² -
1787966437 28.33° C 70% 1015.1 hPa 0 mm - 0 W/m² -
1787966132 28.33° C 69% 1015.2 hPa 0 mm - 0 W/m² -
1787965831 28.89° C 70% 1015.2 hPa 0 mm - 0 W/m² -
1787965526 28.89° C 70% 1015.3 hPa 0 mm - 0 W/m² -
1787965221 28.89° C 69% 1015.2 hPa 0 mm - 1 W/m² -

* Rain latest hour (hover to see other rain measurements)
** Current wind speed in m/s (hover to see current wind gust speed)